Location: Unspecified
(0.0000°N, 0.0000°E)
Time: 00:31:16
(UTC+02:00)

Orbus 21S - Visible Passes

Search period start: 29 July 2014 00:00
Search period end: 08 August 2014 00:00
Orbit: 318 x 33501 km, 24.1° (Epoch: 27 July)

Date Brightness Start Highest point End Pass type
(mag) Time Alt. Az. Time Alt. Az. Time Alt. Az.
29 Jul 6.8 02:12:01 10° WNW 04:14:01 55° WNW 11:12:55 10° SE visible
29 Jul 8.1 21:27:36 10° NW 04:33:26 75° ESE 06:35:26 10° ESE visible
31 Jul 6.0 11:55:42 10° WSW 05:15:03 35° WNW 12:23:18 10° SSE visible
31 Jul 8.3 22:39:18 10° NW 04:17:26 90° NNW 07:48:42 10° SE visible
01 Aug 9.9 23:01:26 10° E 01:25:12 22° E 02:39:45 10° ESE visible
02 Aug 9.8 05:17:46 10° WNW 06:19:34 16° WNW 07:56:48 10° W visible
02 Aug 7.9 23:51:53 10° NW 03:20:00 80° NNW 09:00:23 10° SE visible
03 Aug 7.7 19:14:59 10° NW 02:31:58 42° ESE 20:06:55 10° ENE visible
05 Aug 7.3 01:06:10 10° WNW 03:19:05 66° NW 10:11:09 10° SE visible
05 Aug 8.0 20:25:32 10° NW 03:35:28 63° ESE 05:30:22 10° ESE visible
07 Aug 6.5 02:23:58 10° WNW 04:13:46 47° WNW 11:21:24 10° SE visible
07 Aug 8.2 21:36:20 10° NW 00:00:00 51° ENE 00:00:00 51° ENE visible
